Regional Weather Roundup
Issued by NWS Bismarck, ND

Home | Current Version | Previous Version | Text Only | Print | Product List | Glossary On
Versions: 1 2 3 4 5 6 7 8 9 10 11 12 13 14 15 16 17 18 19 20 21 22 23 24 25 26 27 28 29 30 31 32 33 34 35 36 37 38 39 40 41 42 43 44 45 46 47 48 49 50
000
ASUS43 KBIS 220859
RWRBIS

NWR BROADCAST TEXT
NATIONAL WEATHER SERVICE BISMARCK ND
400 AM CDT WED OCT 22 2014

NOTE: "FAIR" INDICATES FEW OR NO CLOUDS BELOW 12,000 FEET WITH NO
SIGNIFICANT WEATHER AND/OR OBSTRUCTIONS TO VISIBILITY.


CITY           SKY/WX    TMP DP  RH WIND       PRES   REMARKS
WILLISTON      MOCLDY    54  46  74 W8        29.69R
MINOT          PTCLDY    59  47  64 SW14      29.63R
MINOT AFB      NOT AVBL
BISMARCK       PTCLDY    58  48  69 S7        29.68S
DICKINSON      NOT AVBL
GARRISON         N/A     53  49  86 CALM      29.65F
HETTINGER ARPT CLEAR     51  44  77 W12       29.78R
JAMESTOWN      NOT AVBL
CARRINGTON     FAIR      57  46  67 S21G28    29.72R HAZE
OAKES            N/A     59  41  51 S20G29    29.80F HAZE
$$

CITY           SKY/WX    TMP DP  RH WIND       PRES   REMARKS
GRAND FORKS    CLEAR     54  42  64 S23G30    29.81F
GRAND FORKS AF NOT AVBL
DEVILS LAKE    CLEAR     57  43  58 S15       29.70R
FARGO          PTCLDY    55  41  59 SE25G35   29.87F
GWINNER        SUNNY     61  41  48 S18       29.84F
$$

CITY           SKY/WX    TMP DP  RH WIND       PRES   REMARKS
ABERDEEN       CLEAR     60  39  45 S21G31    29.82F
MOBRIDGE       MOCLDY    62  52  69 SE9       29.72R
RAPID CITY     CLOUDY    59  39  47 N20G29    29.86R
GLASGOW        PTCLDY    48  40  73 W13       29.77R
SIDNEY         MOCLDY    54  46  76 W26G32    29.72R
WOLF POINT     PTCLDY    50  45  83 W14       29.77R
GLENDIVE       MOCLDY    52  45  76 W17G24    29.82R
MILES CITY     LGT RAIN  48  39  71 W12       29.88R
BAKER          CLOUDY    50  44  80 W15G21    29.85R
$$

CITY           SKY/WX    TMP DP  RH WIND       PRES   REMARKS
BILLINGS       CLEAR     48  29  47 W23G29    29.95R
GREAT FALLS    PTCLDY    42  34  73 SW15      29.92S
$$




USA.gov is the U.S. government's official web portal to all federal, state and local government web resources and services.